When you browse on this site, cookies collect data to enhance your experience and personalize the content and advertising you see.
Visit our Privacy Policy to learn more. By continuing to use the site, you agree to this use of cookies and data.
  • In Hungary
  • List of Countries
  • For 7 days
  • Water Temperature
  • Satellite Maps
  • Weather Map
  • News
  • Weather Widgets
  • user-avatar
    Login

    Hourly Weather Thermi

    Today, 16 December, Sunday

    Time Temperature Precipitation Wind Pressure Humidity
    00:00 +12°C° 0.4 mm 2 mps 753 mmHg 91%
    01:00 +12°C° 0.4 mm 2 mps 753 mmHg 91%
    02:00 +12°C° 0.4 mm 2 mps 753 mmHg 91%
    03:00 +12°C° 0.6 mm 2 mps 752 mmHg 92%
    04:00 +12°C° 0.6 mm 2 mps 752 mmHg 92%
    05:00 +12°C° 0.6 mm 2 mps 752 mmHg 92%
    06:00 +12°C° 0.6 mm 2 mps 752 mmHg 92%
    07:00 +10°C° 0.6 mm 2 mps 752 mmHg 92%
    08:00 +10°C° 0.6 mm 2 mps 752 mmHg 92%
    09:00 +12°C° 0.2 mm 2 mps 752 mmHg 87%
    10:00 +14°C° 0.2 mm 2 mps 753 mmHg 82%
    11:00 +15°C° 0.2 mm 2 mps 753 mmHg 77%
    12:00 +13°C° 0.4 mm 3 mps 753 mmHg 75%
    13:00 +13°C° 0.4 mm 4 mps 753 mmHg 73%
    14:00 +12°C° 0.4 mm 5 mps 753 mmHg 72%
    15:00 +10°C° 0.3 mm 5 mps 753 mmHg 72%
    16:00 +9°C° 0.3 mm 5 mps 754 mmHg 71%
    17:00 +8°C° 0.3 mm 6 mps 754 mmHg 71%
    18:00 +8°C° 0.1 mm 5 mps 755 mmHg 71%
    19:00 +7°C° 0.1 mm 5 mps 755 mmHg 71%
    20:00 +6°C° 0.1 mm 5 mps 756 mmHg 71%
    21:00 +6°C° 0 mm 5 mps 756 mmHg 70%
    22:00 +5°C° 0 mm 5 mps 756 mmHg 70%
    23:00 +5°C° 0 mm 4 mps 757 mmHg 70%

    Tomorrow, 17 December, Monday

    Time Temperature Precipitation Wind Pressure Humidity
    00:00 +5°C° 0 mm 4 mps 757 mmHg 69%
    01:00 +4°C° 0 mm 4 mps 757 mmHg 68%
    02:00 +4°C° 0 mm 4 mps 757 mmHg 68%
    03:00 +4°C° 0 mm 4 mps 757 mmHg 67%
    04:00 +4°C° 0 mm 3 mps 757 mmHg 66%
    05:00 +3°C° 0 mm 3 mps 757 mmHg 66%
    06:00 +4°C° 0 mm 3 mps 757 mmHg 64%
    07:00 +4°C° 0 mm 3 mps 757 mmHg 63%
    08:00 +5°C° 0 mm 2 mps 757 mmHg 62%
    09:00 +6°C° 0 mm 2 mps 757 mmHg 58%
    10:00 +7°C° 0 mm 2 mps 757 mmHg 55%
    11:00 +8°C° 0 mm 2 mps 757 mmHg 51%
    12:00 +10°C° 0 mm 1 mps 756 mmHg 51%
    13:00 +10°C° 0 mm 1 mps 756 mmHg 50%
    14:00 +11°C° 0 mm 1 mps 755 mmHg 49%
    15:00 +10°C° 0 mm 1 mps 755 mmHg 54%
    16:00 +10°C° 0 mm 1 mps 756 mmHg 58%
    17:00 +9°C° 0 mm 2 mps 756 mmHg 62%
    18:00 +9°C° 0.1 mm 1 mps 756 mmHg 65%
    19:00 +9°C° 0.1 mm 1 mps 756 mmHg 67%
    20:00 +9°C° 0.1 mm 1 mps 756 mmHg 70%
    21:00 +9°C° 0.2 mm 1 mps 756 mmHg 72%
    22:00 +9°C° 0.2 mm 1 mps 756 mmHg 74%
    23:00 +8°C° 0.2 mm 1 mps 756 mmHg 76%

    Day after tomorrow, 18 December, Tuesday

    Time Temperature Precipitation Wind Pressure Humidity
    00:00 +7°C° 0.3 mm 2 mps 756 mmHg 77%
    01:00 +7°C° 0.3 mm 2 mps 756 mmHg 78%
    02:00 +8°C° 0.3 mm 3 mps 756 mmHg 80%
    03:00 +7°C° 1 mm 3 mps 756 mmHg 81%
    04:00 +6°C° 1 mm 4 mps 756 mmHg 82%
    05:00 +6°C° 1 mm 4 mps 756 mmHg 83%
    06:00 +6°C° 1.4 mm 4 mps 756 mmHg 83%
    07:00 +6°C° 1.4 mm 4 mps 756 mmHg 83%
    08:00 +6°C° 1.4 mm 5 mps 756 mmHg 83%
    09:00 +6°C° 1.4 mm 5 mps 756 mmHg 82%
    10:00 +6°C° 1.4 mm 5 mps 757 mmHg 81%
    11:00 +6°C° 1.4 mm 5 mps 757 mmHg 80%
    12:00 +6°C° 1.1 mm 5 mps 757 mmHg 78%
    13:00 +6°C° 1.1 mm 5 mps 757 mmHg 77%
    14:00 +7°C° 1.1 mm 6 mps 756 mmHg 76%
    15:00 +6°C° 0.6 mm 5 mps 757 mmHg 76%
    16:00 +6°C° 0.6 mm 5 mps 757 mmHg 76%
    17:00 +6°C° 0.6 mm 5 mps 758 mmHg 76%
    18:00 +6°C° 0.4 mm 5 mps 758 mmHg 76%
    19:00 +6°C° 0.4 mm 5 mps 759 mmHg 75%
    20:00 +6°C° 0.4 mm 4 mps 759 mmHg 75%
    21:00 +5°C° 0.1 mm 4 mps 760 mmHg 75%
    22:00 +5°C° 0.1 mm 4 mps 760 mmHg 75%
    23:00 +5°C° 0.1 mm 4 mps 760 mmHg 74%

    19 December, Wednesday

    Time Temperature Precipitation Wind Pressure Humidity
    00:00 +5°C° 0.1 mm 4 mps 760 mmHg 75%
    01:00 +4°C° 0.1 mm 4 mps 760 mmHg 75%
    02:00 +4°C° 0.1 mm 4 mps 760 mmHg 75%
    03:00 +4°C° 0 mm 4 mps 760 mmHg 75%
    04:00 +4°C° 0 mm 3 mps 760 mmHg 75%
    05:00 +3°C° 0 mm 3 mps 760 mmHg 76%
    06:00 +3°C° 0.1 mm 3 mps 761 mmHg 76%
    07:00 +3°C° 0.1 mm 3 mps 761 mmHg 76%
    08:00 +3°C° 0.1 mm 3 mps 761 mmHg 76%
    09:00 +4°C° 0 mm 3 mps 761 mmHg 73%
    10:00 +5°C° 0 mm 3 mps 761 mmHg 70%
    11:00 +7°C° 0 mm 2 mps 761 mmHg 66%
    12:00 +8°C° 0 mm 3 mps 761 mmHg 65%
    13:00 +8°C° 0 mm 3 mps 761 mmHg 63%
    14:00 +9°C° 0 mm 3 mps 760 mmHg 61%
    15:00 +8°C° 0 mm 2 mps 761 mmHg 64%
    16:00 +8°C° 0 mm 2 mps 761 mmHg 67%
    17:00 +7°C° 0 mm 2 mps 761 mmHg 69%
    18:00 +6°C° 0 mm 2 mps 762 mmHg 72%
    19:00 +6°C° 0 mm 2 mps 762 mmHg 74%
    20:00 +5°C° 0 mm 2 mps 763 mmHg 76%
    21:00 +5°C° 0 mm 2 mps 763 mmHg 77%
    22:00 +5°C° 0 mm 2 mps 764 mmHg 77%
    23:00 +5°C° 0 mm 2 mps 764 mmHg 78%

    20 December, Thursday

    Time Temperature Precipitation Wind Pressure Humidity
    00:00 +5°C° 0 mm 2 mps 764 mmHg 78%
    01:00 +4°C° 0 mm 2 mps 764 mmHg 78%
    02:00 +4°C° 0 mm 2 mps 764 mmHg 78%
    03:00 +4°C° 0 mm 2 mps 765 mmHg 78%
    04:00 +5°C° 0 mm 1 mps 765 mmHg 78%
    05:00 +5°C° 0 mm 1 mps 765 mmHg 78%
    06:00 +5°C° 0 mm 1 mps 765 mmHg 79%
    07:00 +5°C° 0 mm 1 mps 765 mmHg 79%
    08:00 +5°C° 0 mm 1 mps 765 mmHg 79%
    09:00 +6°C° 0 mm 1 mps 766 mmHg 76%
    10:00 +7°C° 0 mm 1 mps 766 mmHg 73%
    11:00 +8°C° 0 mm 1 mps 766 mmHg 69%
    12:00 +9°C° 0 mm 1 mps 765 mmHg 68%
    13:00 +9°C° 0 mm 1 mps 765 mmHg 68%
    14:00 +10°C° 0 mm 1 mps 764 mmHg 67%
    15:00 +9°C° 0 mm 1 mps 764 mmHg 70%
    16:00 +9°C° 0 mm 1 mps 765 mmHg 73%
    17:00 +8°C° 0 mm 1 mps 765 mmHg 75%
    18:00 +8°C° 0 mm 1 mps 765 mmHg 78%
    19:00 +8°C° 0 mm 1 mps 765 mmHg 80%
    20:00 +7°C° 0 mm 1 mps 765 mmHg 82%
    21:00 +6°C° 0 mm 2 mps 766 mmHg 83%
    22:00 +6°C° 0 mm 2 mps 766 mmHg 84%
    23:00 +6°C° 0 mm 2 mps 766 mmHg 85%

    21 December, Friday

    Time Temperature Precipitation Wind Pressure Humidity
    00:00 +6°C° 0 mm 2 mps 766 mmHg 85%
    01:00 +7°C° 0 mm 2 mps 766 mmHg 85%
    02:00 +7°C° 0 mm 2 mps 765 mmHg 85%
    03:00 +6°C° 0 mm 2 mps 765 mmHg 85%
    04:00 +6°C° 0 mm 2 mps 765 mmHg 86%
    05:00 +6°C° 0 mm 2 mps 765 mmHg 86%
    06:00 +6°C° 0 mm 2 mps 765 mmHg 86%
    07:00 +6°C° 0 mm 2 mps 765 mmHg 86%
    08:00 +6°C° 0 mm 2 mps 765 mmHg 86%
    09:00 +7°C° 0.1 mm 3 mps 765 mmHg 84%
    10:00 +7°C° 0.1 mm 3 mps 765 mmHg 81%
    11:00 +8°C° 0.1 mm 3 mps 765 mmHg 79%
    12:00 +8°C° 0.1 mm 3 mps 764 mmHg 78%
    13:00 +9°C° 0.1 mm 3 mps 764 mmHg 77%
    14:00 +9°C° 0.1 mm 3 mps 763 mmHg 76%
    15:00 +9°C° 0.4 mm 3 mps 763 mmHg 78%
    16:00 +8°C° 0.4 mm 3 mps 763 mmHg 80%
    17:00 +8°C° 0.4 mm 3 mps 763 mmHg 82%
    18:00 +8°C° 0.9 mm 3 mps 763 mmHg 84%
    19:00 +7°C° 0.9 mm 2 mps 764 mmHg 85%
    20:00 +7°C° 0.9 mm 2 mps 764 mmHg 87%
    21:00 +7°C° 1 mm 2 mps 764 mmHg 88%
    22:00 +7°C° 1 mm 2 mps 764 mmHg 89%
    23:00 +7°C° 1 mm 2 mps 764 mmHg 90%
    Show more